Follow iAlert.com on twitter @ialertcom
Search For Active Alerts in Your Area  
  Hi Guest:  [ Sign-up / Services ] [ Login ]

Current weather by "City, St" or "zip code"  
 

Advertise Here

Current Conditions: Allentown, Lehigh Valley International Airport, PA

Fair


37.0 F

Last Updated on Oct 19 2018, 2:51 am EDT
Humidity: 79%
Wind Speed: SW 4.6 mph
Barometer 30.33 in
Dewpoint: 30.9 F
Visibility: 10.00 mi
Precip: --
Heat Index: NA
Wind Chill: 33 F
Current conditions at:

Allentown, Lehigh Valley International Airport, PA (KABE)

Lat: 40.64 Lon: 75.447

Local Radar Image active severe weather and emergency alerts image image weather storm and storm spotter reports image weather observation monitoring service image
Local
Radar
Active
Alerts
Storm Reports Obs
Monitoring

iAlert Weather and Emergency Alert Notification Services:


ialert severe weather and emergency alerts by text message and email ialert daily weather forecast by email and text message service ialert real-time weather-observation monitoring and alert notification service ialert storm report monitoring alert notification

Observation History for Allentown, Lehigh Valley International Airport, PA


Time Wind
(mph)
Vis
(mi)
Weather Precip (in) Temperature (F) Relative
Humidity
Wind
Chill
(°F)
Heat
Index
(°F)
Pressure
Air Dwpt altimeter
(in)
sea level
(mb)
2:51 am EDT SW 4.6 10.00 Fair -- 37.0 30.9 79% 33 NA 30.33 1027.3
1:51 am EDT SW 3.5 10.00 Fair -- 38.0 32.0 79% NA NA 30.34 1027.6
12:51 am EDT N 0.0 10.00 Fair -- 37.0 30.9 79% NA NA 30.35 1027.9
11:51 pm EDT N 0.0 10.00 Fair -- 39.0 30.9 73% NA NA 30.34 1027.8
10:51 pm EDT W 3.5 10.00 Fair -- 37.0 30.9 79% NA NA 30.35 1028.2
9:51 pm EDT SW 4.6 10.00 Fair -- 40.0 30.0 68% 37 NA 30.36 1028.2
8:51 pm EDT S 3.5 10.00 Fair -- 42.0 30.0 62% NA NA 30.35 1028.0
7:51 pm EDT W 3.5 10.00 Fair -- 44.0 28.9 55% NA NA 30.35 1028.0
6:51 pm EDT SW 4.6 10.00 Fair -- 45.0 28.0 52% 43 NA 30.35 1028.1
5:51 pm EDT NW 9.2 10.00 Fair -- 49.0 26.1 41% 45 NA 30.35 1027.9
4:51 pm EDT W 12.7 G 20.7 10.00 Fair -- 51.0 25.0 36% 46 NA 30.34 1027.4
3:51 pm EDT W 12.7 G 21.9 10.00 Fair -- 52.0 27.0 38% 48 NA 30.34 1027.6
2:51 pm EDT 6.9 10.00 Fair -- 51.0 26.1 38% 48 NA 30.35 1027.9
1:51 pm EDT W 8.1 G 18.4 10.00 Fair -- 51.0 26.1 38% 48 NA 30.36 1028.4
12:51 pm EDT NW 9.2 10.00 Fair -- 49.0 25.0 39% 45 NA 30.38 1028.8
11:51 am EDT NW 6.9 G 20.7 10.00 Fair -- 48.0 24.1 39% 45 NA 30.39 1029.1
10:51 am EDT NW 12.7 10.00 Fair -- 46.0 24.1 42% 40 NA 30.39 1029.2
9:51 am EDT NW 15.0 G 25.3 10.00 Partly Cloudy -- 45.0 24.1 44% 38 NA 30.38 1028.9
8:51 am EDT NW 11.5 10.00 Overcast -- 44.0 27.0 51% 38 NA 30.36 1028.2
7:51 am EDT N 3.5 10.00 Overcast -- 42.0 28.0 58% NA NA 30.33 1027.3
6:51 am EDT W 9.2 10.00 Mostly Cloudy -- 42.0 26.1 53% 36 NA 30.30 1026.3
5:51 am EDT NW 10.4 10.00 Fair -- 41.0 27.0 57% 35 NA 30.28 1025.6
4:51 am EDT W 6.9 10.00 Fair -- 41.0 28.0 60% 36 NA 30.26 1024.7
3:51 am EDT W 6.9 10.00 A Few Clouds -- 42.0 27.0 55% 38 NA 30.24 1024.0

Regional Weather Observation


Allentown Queen City Municipal Airport, PA (KXLL)

Fair
37.0 F

Quakertown Airport, PA (KUKT)

Fair
32.0 F

Reading, Reading Regional Airport, PA (KRDG)

Fair
36.0 F

Mount Pocono, Pocono Mountains Municipal Airport, PA (KMPO)

Fair
33.0 F

Pottstown, Pottstown Limerick Airport, PA (KPTW)

Fair
33.0 F

Doylestown, Doylestown Airport, PA (KDYL)

Fair
37.0 F

Advertise Here